CZ-4B DEB (44532 NORAD) Tracking and Keplerian Element Data

This shows tracking and keplerian element data for the satellite.

Feedback or suggestion? Click here.




ElementValue
Catalog44532
NameCZ-4B DEB
Epoch Orbit389
Epoch Day282.94200535
Epoch Year2019
RAAN357.0072
Inclination98.7189
Eccentricity0.0109494
Argument of Perigee216.7878
Mean Anonmoly142.5863
Mean Motion14.50909357
Decay Rate0.00057545
L11 44532U 19059E 19282.94200535 .00057545 00000-0 13396-1 0 9991
L22 44532 98.7189 357.0072 0109494 216.7878 142.5863 14.50909357 3894

Live tracking and technical data element details for CZ-4B DEB (NORAD 44532). CZ-4B DEB can be tracked NOW for your location showing map with azimuth and elevation plus other details from your city location.

Track the satellite on the map from your city or location and see movement details for azimuth, elevation, latitude, longitude, range, height, and movement on the map or in text.







IsCatalogInMostPopularTable: catalog: 44532, numindb: 10
Update: records affected: 1



GetName: 44532 CZ-4B DEB

Hit Count: updated at: Wed, 23 Oct 2019 00:19:55 GMT